EST,Max TemperatureF,Mean TemperatureF,Min TemperatureF,Max Dew PointF,MeanDew PointF,Min DewpointF,Max Humidity, Mean Humidity, Min Humidity, Max Sea Level PressureIn, Mean Sea Level PressureIn, Min Sea Level PressureIn, Max VisibilityMiles, Mean VisibilityMiles, Min VisibilityMiles, Max Wind SpeedMPH, Mean Wind SpeedMPH, Max Gust SpeedMPH,PrecipitationIn, CloudCover, Events, WindDirDegrees
2012-1-1,51,43,35,45,37,34,93,79,54,30.07,29.91,29.66,10,10,7,12,7,23,0.00,3,,229
2012-1-2,48,38,28,46,26,16,93,61,36,29.72,29.63,29.55,10,10,9,18,8,29,0.01,5,,252
2012-1-3,30,21,12,19,9,-2,80,56,40,29.97,29.81,29.70,10,10,10,20,7,26,0.00,1,,310
2012-1-4,26,17,8,5,0,-2,67,48,29,30.08,29.99,29.89,10,10,10,12,8,20,0.00,1,,285
2012-1-5,35,28,21,19,13,5,60,52,47,29.90,29.83,29.74,10,10,10,17,7,25,0.00,5,,260
2012-1-6,50,37,24,32,23,12,69,58,46,29.92,29.81,29.70,10,10,8,9,4,21,0.00,3,,221
2012-1-7,59,46,32,30,29,27,80,52,31,29.89,29.74,29.65,10,10,10,13,5,22,0.00,1,,249
2012-1-8,42,34,26,27,21,14,70,55,42,30.24,30.10,29.90,10,10,10,13,7,18,0.00,1,,284
2012-1-9,41,32,23,21,14,7,74,55,24,30.27,30.18,29.98,10,10,10,7,4,,0.00,2,,250
2012-1-10,44,34,24,27,24,21,93,65,46,29.95,29.86,29.75,10,10,5,16,4,24,0.00,4,,269
2012-1-11,41,34,26,28,23,21,81,65,45,30.10,30.04,29.93,10,10,10,9,5,,0.00,3,,77
2012-1-12,41,37,33,39,35,28,100,92,75,30.01,29.67,29.43,10,6,2,22,11,31,1.28,8,,45
2012-1-13,50,39,26,46,26,10,100,71,43,29.62,29.42,29.22,10,6,0,22,8,37,0.02,6,,209
2012-1-14,33,25,17,16,10,-2,69,51,34,29.99,29.80,29.63,10,10,10,18,11,31,0.00,2,,268
2012-1-15,17,12,8,1,-1,-6,67,59,42,30.45,30.19,29.99,10,10,10,14,10,21,0.00,0,,311
2012-1-16,35,20,6,30,6,-2,93,58,29,30.54,30.40,30.12,10,9,1,12,6,18,0.00,1,,246
2012-1-17,46,40,33,45,35,30,93,88,81,30.11,29.82,29.48,10,9,1,10,7,24,0.09,8,,220
2012-1-18,50,34,19,45,17,1,87,51,36,30.11,29.79,29.46,10,10,10,25,14,37,0.00,1,,294
2012-1-19,28,19,10,27,11,3,100,66,47,30.24,30.12,29.94,10,9,0,10,5,17,0.01,3,,69
2012-1-20,28,22,15,27,13,1,93,66,36,30.25,30.07,29.89,10,9,2,15,5,22,0.10,2,,284
2012-1-21,19,16,14,18,12,3,93,77,58,30.28,30.16,30.03,10,6,0,20,6,24,0.00,7,,24
2012-1-22,28,19,10,21,13,3,85,73,64,30.52,30.45,30.28,10,10,9,14,9,20,0.01,4,,23
2012-1-23,37,32,26,34,25,19,87,80,74,30.47,30.36,30.24,10,10,10,15,6,,0.00,8,,98
2012-1-24,,,,,,,,,,,,,,,,,,,,,,
2012-1-25,,,,,,,,,,,,,,,,,,,,,,
2012-1-26,39,36,33,32,28,25,93,75,60,30.19,30.08,29.94,10,8,2,8,3,,0.05,5,,116
2012-1-27,44,38,33,43,36,28,100,91,65,29.92,29.55,29.28,10,4,0,22,7,36,0.27,7,,3
2012-1-28,46,40,33,30,27,23,75,63,43,29.99,29.88,29.64,10,10,10,18,10,28,0.00,1,,245
2012-1-29,41,36,30,30,16,10,75,46,29,30.09,30.01,29.88,10,10,10,16,9,28,0.00,0,,250
2012-1-30,37,30,24,25,16,9,74,52,33,30.27,30.09,29.92,10,10,10,21,8,31,0.00,1,,265
2012-1-31,55,40,26,28,23,16,86,56,33,30.27,30.09,29.98,10,10,10,9,2,,0.00,3,,181